Date String (YYYY-MM-DD hh:mm:ss) UTC,Instrument flags,Ambient pressure (hPa),Sample flow (lpm),Bypass flow (lpm),Sample temperature (°C),Ambient temperature (°C),ASC tube jacket temperature (°C),LED temperature (°C),Box temperature (°C),Sample RH (%),Span deviation,Mass concentration (μg/m³),Mass concentration (μg/m³),Mass concentration (μg/m³)
DateTimeUTC,F1_M11,P_M11,Q1_M11,Q2_M11,T1_M11,T2_M11,T3_M11,T4_M11,T5_M11,U1_M11,ZSPAN_M11,X0_M11,X2_M11,X1_M11
2022-06-10 14:00:00,,0827.5,5.00,0.00,29.6,28.5,00.0,38.6,31.5,31.2,0000.0,0013.97,0004.98,0003.33
2022-06-10 14:01:00,,0827.5,5.00,0.00,29.6,28.6,00.0,38.6,31.5,31.4,0000.0,0013.82,0004.97,0003.37
2022-06-10 14:02:00,,0827.5,5.00,0.00,29.6,28.6,00.0,38.6,31.5,31.3,0000.0,0013.78,0004.93,0003.38
2022-06-10 14:03:00,,0827.5,5.00,0.00,29.6,28.7,00.0,38.6,31.5,30.6,0000.0,0013.91,0004.95,0003.38
2022-06-10 14:04:00,,0827.4,4.99,0.00,29.7,28.7,00.0,38.6,31.5,30.6,0000.0,0014.17,0004.94,0003.39
2022-06-10 14:05:00,,0827.4,5.00,0.00,29.7,28.8,00.0,38.6,31.6,29.6,0000.0,0014.18,0004.92,0003.39
2022-06-10 14:06:00,,0827.4,5.00,0.00,29.7,28.8,00.0,38.6,31.6,29.1,0000.0,0014.23,0004.89,0003.40
2022-06-10 14:07:00,,0827.4,5.01,0.00,29.7,28.8,00.0,38.6,31.6,29.0,0000.0,0014.63,0004.89,0003.39
2022-06-10 14:08:00,,0827.4,5.00,0.00,29.7,28.9,00.0,38.6,31.6,28.4,0000.0,0013.74,0004.90,0003.39
2022-06-10 14:09:00,,0827.4,5.00,0.00,29.8,28.9,00.0,38.6,31.7,29.5,0000.0,0013.59,0004.87,0003.40
2022-06-10 14:10:00,,0827.5,4.99,0.00,29.8,28.9,00.0,38.6,31.7,29.2,0000.0,0013.19,0004.82,0003.39
2022-06-10 14:11:00,,0827.5,5.00,0.00,29.8,28.9,00.0,38.7,31.7,28.8,0000.0,0012.82,0004.79,0003.39
2022-06-10 14:12:00,,0827.5,5.00,0.00,29.8,29.0,00.0,38.7,31.7,28.7,0000.0,0012.79,0004.80,0003.38
2022-06-10 14:13:00,,0827.5,5.00,0.00,29.8,29.0,00.0,38.7,31.7,28.8,0000.0,0012.74,0004.77,0003.37
2022-06-10 14:14:00,,0827.5,4.99,0.00,29.8,29.0,00.0,38.7,31.7,28.2,0000.0,0013.00,0004.72,0003.36
2022-06-10 14:15:00,,0827.5,4.99,0.00,29.9,29.0,00.0,38.7,31.7,25.7,0000.0,0012.66,0004.64,0003.34
2022-06-10 14:16:00,,0827.5,4.99,0.00,29.9,29.1,00.0,38.7,31.8,26.3,0000.0,0013.20,0004.65,0003.31
2022-06-10 14:17:00,,0827.5,4.99,0.00,29.9,29.1,00.0,38.7,31.8,25.8,0000.0,0013.43,0004.66,0003.30
2022-06-10 14:18:00,,0827.5,5.01,0.00,29.9,28.7,00.0,38.7,31.8,23.6,0000.0,0012.14,0004.55,0003.27
2022-06-10 14:19:00,,0827.6,5.00,0.00,29.8,28.0,00.0,38.6,31.5,24.8,0000.0,0012.40,0004.47,0003.24
2022-06-10 14:20:00,,0827.6,4.99,0.00,29.8,27.7,00.0,38.6,31.4,26.6,0000.0,0012.46,0004.41,0003.20
2022-06-10 14:21:00,,0827.6,5.01,0.00,29.7,27.6,00.0,38.6,31.4,27.0,0000.0,0012.42,0004.39,0003.18
2022-06-10 14:22:00,,0827.6,5.00,0.00,29.6,27.7,00.0,38.6,31.3,26.2,0000.0,0012.00,0004.34,0003.15
2022-06-10 14:23:00,,0827.6,5.01,0.00,29.6,27.8,00.0,38.6,31.3,24.5,0000.0,0011.53,0004.28,0003.11
2022-06-10 14:24:00,,0827.6,4.99,0.00,29.6,27.9,00.0,38.6,31.3,24.6,0000.0,0011.61,0004.30,0003.05
2022-06-10 14:25:00,,0827.5,5.00,0.00,29.6,28.0,00.0,38.5,31.4,25.0,0000.0,0011.38,0004.28,0002.99
2022-06-10 14:26:00,,0827.5,5.01,0.00,29.6,28.2,00.0,38.5,31.4,24.9,0000.0,0011.55,0004.33,0002.98
2022-06-10 14:27:00,,0827.6,4.98,0.00,29.6,28.3,00.0,38.5,31.4,24.3,0000.0,0010.65,0004.30,0002.97
2022-06-10 14:28:00,,0827.5,5.00,0.00,29.6,28.4,00.0,38.5,31.4,24.4,0000.0,0010.42,0004.29,0002.96
2022-06-10 14:29:00,,0827.5,5.00,0.00,29.6,28.4,00.0,38.5,31.5,25.1,0000.0,0011.04,0004.37,0002.99
2022-06-10 14:30:00,,0827.6,4.99,0.00,29.6,28.5,00.0,38.5,31.5,24.0,0000.0,0010.52,0004.39,0003.02
2022-06-10 14:31:00,,0827.7,4.99,0.00,29.6,28.6,00.0,38.5,31.5,23.5,0000.0,0010.60,0004.48,0003.03
2022-06-10 14:32:00,,0827.7,5.00,0.00,29.7,28.6,00.0,38.5,31.6,23.8,0000.0,0010.83,0004.52,0003.01
2022-06-10 14:33:00,,0827.7,5.06,0.00,29.7,28.7,00.0,38.6,31.6,24.4,0000.0,0011.22,0004.53,0003.04
2022-06-10 14:34:00,,0827.7,5.00,0.00,29.7,28.8,00.0,38.6,31.6,25.3,0000.0,0011.23,0004.50,0003.05
2022-06-10 14:35:00,,0827.7,5.00,0.00,29.7,28.8,00.0,38.6,31.6,26.9,0000.0,0011.08,0004.43,0003.06
2022-06-10 14:36:00,,0827.7,5.00,0.00,29.7,28.9,00.0,38.6,31.7,26.2,0000.0,0010.77,0004.43,0003.09
2022-06-10 14:37:00,,0827.8,5.01,0.00,29.8,28.9,00.0,38.6,31.7,26.1,0000.0,0010.43,0004.43,0003.13
2022-06-10 14:38:00,,0827.7,5.00,0.00,29.8,28.9,00.0,38.6,31.7,27.1,0000.0,0010.44,0004.52,0003.16
2022-06-10 14:39:00,,0827.7,5.01,0.00,29.8,28.9,00.0,38.6,31.7,25.9,0000.0,0010.34,0004.51,0003.16
2022-06-10 14:40:00,,0827.7,4.99,0.00,29.8,28.5,00.0,38.6,31.7,27.5,0000.0,0009.93,0004.50,0003.18
2022-06-10 14:41:00,,0827.7,5.01,0.00,29.7,27.8,00.0,38.5,31.4,26.0,0000.0,0010.35,0004.59,0003.20
2022-06-10 14:42:00,,0827.7,4.98,0.00,29.7,27.5,00.0,38.5,31.3,26.0,0000.0,0010.35,0004.58,0003.21
2022-06-10 14:43:00,,0827.7,5.01,0.00,29.6,27.5,00.0,38.5,31.3,27.2,0000.0,0010.32,0004.59,0003.25
2022-06-10 14:44:00,,0827.7,4.99,0.00,29.5,27.6,00.0,38.5,31.3,28.1,0000.0,0010.76,0004.67,0003.28
2022-06-10 14:45:00,,0827.7,5.00,0.00,29.5,27.7,00.0,38.5,31.3,27.0,0000.0,0011.40,0004.78,0003.31
2022-06-10 14:46:00,,0827.7,5.01,0.00,29.5,27.9,00.0,38.5,31.3,26.2,0000.0,0011.53,0004.89,0003.33
2022-06-10 14:47:00,,0827.7,5.01,0.00,29.5,28.0,00.0,38.4,31.3,27.0,0000.0,0011.92,0004.89,0003.33
2022-06-10 14:48:00,,0827.7,5.00,0.00,29.5,28.1,00.0,38.4,31.4,27.0,0000.0,0012.28,0004.93,0003.33
2022-06-10 14:49:00,,0827.7,5.00,0.00,29.5,28.2,00.0,38.4,31.4,26.3,0000.0,0012.23,0004.89,0003.33
2022-06-10 14:50:00,,0827.7,4.99,0.00,29.5,28.3,00.0,38.4,31.4,26.1,0000.0,0012.85,0004.96,0003.35
2022-06-10 14:51:00,,0827.8,5.01,0.00,29.5,28.4,00.0,38.4,31.4,27.0,0000.0,0013.17,0005.02,0003.34
2022-06-10 14:52:00,,0827.7,5.00,0.00,29.6,28.5,00.0,38.4,31.4,26.8,0000.0,0013.47,0005.02,0003.34
2022-06-10 14:53:00,,0827.7,5.00,0.00,29.6,28.6,00.0,38.5,31.5,27.7,0000.0,0013.63,0005.04,0003.36
2022-06-10 14:54:00,,0827.7,5.01,0.00,29.6,28.6,00.0,38.5,31.5,28.1,0000.0,0013.93,0005.08,0003.38
2022-06-10 14:55:00,,0827.7,4.99,0.00,29.6,28.7,00.0,38.5,31.5,28.4,0000.0,0014.16,0005.08,0003.38
2022-06-10 14:56:00,,0827.7,4.99,0.00,29.6,28.7,00.0,38.5,31.6,27.4,0000.0,0013.76,0004.99,0003.38
2022-06-10 14:57:00,,0827.7,5.00,0.00,29.7,28.8,00.0,38.5,31.6,27.3,0000.0,0014.48,0004.93,0003.37
2022-06-10 14:58:00,,0827.7,5.01,0.00,29.7,28.4,00.0,38.5,31.5,26.9,0000.0,0014.68,0004.98,0003.38
2022-06-10 14:59:00,,0827.7,5.00,0.00,29.6,27.7,00.0,38.4,31.3,26.5,0000.0,0014.56,0004.97,0003.37
